Weather History for Marshfield, WI

Change the Weather History Date:

Sunday, December 2, 2012

  Actual Average Record
Temperature  
Mean Temperature 40 °F -  
Max Temperature 44 °F 31 °F 61 °F (1982)
Min Temperature 35 °F 15 °F -19 °F (1919)
Degree Days  
Heating Degree Days 26    
Moisture  
Dew Point 37 °F    
Average Humidity 97    
Maximum Humidity 100    
Minimum Humidity 93    
Precipitation  
Precipitation 0.00 in - - ()
Sea Level Pressure  
Sea Level Pressure 29.93 in    
Wind  
Wind Speed 6 mph (WNW)    
Max Wind Speed 13 mph    
Max Gust Speed -    
Visibility 2 miles    
Events Fog    
Averages and records for this station are not official NWS values.
T = Trace of Precipitation, MM = Missing Value Source: NWS Daily Summary

Daily Weather History Graph

Daily Weather History Graph

Search for Another Location

Airport:

Trip Planner

Search our weather history database for the weather conditions in past years. The results will help you decide how hot, cold, wet, or windy it might be!

Date:

Astronomy

Dec. 02, 2012 Rise Set
Actual Time 7:19 AM CST 4:21 PM CST
Civil Twilight 6:46 AM CST 4:54 PM CST
Nautical Twilight 6:09 AM CST 5:30 PM CST
Astronomical Twilight 5:34 AM CST 6:05 PM CST
Moon 8:13 PM CST (12/2) 10:05 AM CST (12/2)
Length of Visible Light 10h 08m
Length of Day
9h 02m
Waning Gibbous, 85% of the Moon is Illuminated
Dec 2
Waning Gibbous
Dec 6
Last Quarter
Dec 13
New
Dec 19
First Quarter
Dec 28
Full

Hourly Weather History & Observations

Time (CST) Temp. Windchill Dew Point Humidity Pressure Visibility Wind Dir Wind Speed Gust Speed Precip Events Conditions
12:09 AM 44.6 °F 40.7 °F 44.6 °F 100% 29.80 in 0.8 mi West 6.9 mph - N/A   Overcast
12:44 AM 44.6 °F 40.2 °F 44.6 °F 100% 29.81 in 1.2 mi West 8.1 mph - N/A   Overcast
12:54 AM 44.1 °F 40.1 °F 44.1 °F 100% 29.84 in 1.8 mi West 6.9 mph - N/A   Overcast
1:04 AM 44.6 °F 42.2 °F 42.8 °F 93% 29.80 in 2.0 mi West 4.6 mph - N/A   Overcast
1:40 AM 42.8 °F 40.1 °F 42.8 °F 100% 29.81 in 1.8 mi West 4.6 mph - N/A   Overcast
1:54 AM 42.1 °F - 41.0 °F 96% 29.83 in 1.5 mi Calm Calm - N/A   Overcast
2:02 AM 41.0 °F 39.0 °F 39.2 °F 93% 29.81 in 0.8 mi West 3.5 mph - N/A   Mist
2:33 AM 41.0 °F 38.0 °F 41.0 °F 100% 29.83 in 0.2 mi WNW 4.6 mph - N/A Fog Fog
2:54 AM 41.0 °F 37.1 °F 41.0 °F 100% 29.87 in 1.0 mi West 5.8 mph - N/A   Overcast
2:56 AM 41.0 °F 37.1 °F 41.0 °F 100% 29.84 in 1.2 mi West 5.8 mph - N/A   Overcast
3:12 AM 41.0 °F 36.4 °F 41.0 °F 100% 29.85 in 2.0 mi WNW 6.9 mph - N/A   Overcast
3:30 AM 39.2 °F 32.5 °F 39.2 °F 100% 29.85 in 3.0 mi WNW 10.4 mph - N/A   Overcast
3:50 AM 37.4 °F 32.1 °F 37.4 °F 100% 29.85 in 2.5 mi WNW 6.9 mph - N/A   Overcast
3:54 AM 37.9 °F 32.1 °F 37.0 °F 97% 29.88 in 2.5 mi WNW 8.1 mph - N/A   Mostly Cloudy
4:03 AM 37.4 °F 30.8 °F 37.4 °F 100% 29.85 in 2.5 mi WNW 9.2 mph - N/A   Mostly Cloudy
4:10 AM 37.4 °F 32.1 °F 37.4 °F 100% 29.84 in 2.5 mi WNW 6.9 mph - N/A   Scattered Clouds
4:39 AM 35.6 °F 29.9 °F 35.6 °F 100% 29.85 in 1.5 mi WNW 6.9 mph - N/A   Mostly Cloudy
4:47 AM 37.4 °F 32.8 °F 35.6 °F 93% 29.85 in 1.5 mi NW 5.8 mph - N/A   Mostly Cloudy
4:54 AM 36.0 °F 32.1 °F 36.0 °F 100% 29.89 in 1.5 mi NW 4.6 mph - N/A   Overcast
5:13 AM 37.4 °F 30.3 °F 35.6 °F 93% 29.86 in 2.5 mi NW 10.4 mph - N/A   Overcast
5:54 AM 37.0 °F 31.6 °F 36.0 °F 96% 29.92 in 2.5 mi NW 6.9 mph - N/A   Overcast
6:20 AM 37.4 °F 31.4 °F 35.6 °F 93% 29.89 in 3.0 mi NW 8.1 mph - N/A   Overcast
6:30 AM 37.4 °F 30.8 °F 35.6 °F 93% 29.90 in 2.5 mi NW 9.2 mph - N/A   Overcast
6:41 AM 37.4 °F 29.3 °F 35.6 °F 93% 29.90 in 3.0 mi NW 12.7 mph - N/A   Overcast
6:54 AM 37.0 °F 30.4 °F 36.0 °F 96% 29.95 in 3.0 mi NW 9.2 mph - N/A   Overcast
7:46 AM 37.4 °F 30.8 °F 35.6 °F 93% 29.93 in 2.0 mi North 9.2 mph - N/A   Overcast
7:54 AM 37.0 °F 29.3 °F 35.1 °F 93% 29.96 in 2.0 mi NNW 11.5 mph - N/A   Overcast
8:26 AM 37.4 °F 32.1 °F 35.6 °F 93% 29.95 in 1.8 mi NW 6.9 mph - N/A   Overcast
8:54 AM 37.0 °F 32.4 °F 36.0 °F 96% 30.00 in 1.8 mi NW 5.8 mph - N/A   Overcast
9:26 AM 37.4 °F 33.8 °F 35.6 °F 93% 29.97 in 2.5 mi North 4.6 mph - N/A   Overcast
9:54 AM 37.0 °F 32.4 °F 36.0 °F 96% 30.01 in 2.0 mi NNW 5.8 mph - N/A   Overcast
10:22 AM 37.4 °F 33.8 °F 35.6 °F 93% 29.99 in 1.8 mi NW 4.6 mph - N/A   Overcast
10:54 AM 37.0 °F 31.6 °F 36.0 °F 96% 30.02 in 1.8 mi North 6.9 mph - N/A   Overcast
11:01 AM 37.4 °F 33.8 °F 35.6 °F 93% 29.98 in 2.0 mi NW 4.6 mph - N/A   Overcast
11:54 AM 36.0 °F - 35.1 °F 97% 30.01 in 2.0 mi Calm Calm - N/A   Overcast
12:30 PM 37.4 °F 34.9 °F 35.6 °F 93% 29.98 in 1.8 mi West 3.5 mph - N/A   Overcast
12:54 PM 37.0 °F - 36.0 °F 96% 30.01 in 1.8 mi Calm Calm - N/A   Overcast
1:54 PM 37.0 °F - 36.0 °F 96% 30.01 in 1.0 mi Calm Calm - N/A   Overcast
2:05 PM 37.4 °F - 35.6 °F 93% 29.96 in 0.8 mi Calm Calm - N/A   Overcast
2:51 PM 37.4 °F 33.8 °F 35.6 °F 93% 29.98 in 1.0 mi SW 4.6 mph - N/A   Overcast
3:54 PM 37.0 °F - 36.0 °F 96% 30.03 in 0.2 mi Calm Calm - N/A Fog Fog
4:54 PM 36.0 °F 33.3 °F 36.0 °F 100% 30.04 in 0.5 mi ESE 3.5 mph - N/A Fog Fog
5:54 PM 36.0 °F 29.0 °F 36.0 °F 100% 30.03 in 0.2 mi SSE 9.2 mph - N/A Fog Fog
6:54 PM 36.0 °F 28.5 °F 36.0 °F 100% 30.03 in 0.2 mi SSE 10.4 mph - N/A Fog Fog
7:54 PM 36.0 °F 30.3 °F 36.0 °F 100% 30.02 in 0.2 mi ESE 6.9 mph - N/A Fog Fog
8:54 PM 36.0 °F 30.3 °F 36.0 °F 100% 30.03 in 0.2 mi ESE 6.9 mph - N/A Fog Fog
9:54 PM 37.0 °F 30.4 °F 37.0 °F 100% 30.03 in 0.2 mi SE 9.2 mph - N/A Fog Fog
10:54 PM 37.0 °F 29.8 °F 37.0 °F 100% 30.01 in 0.2 mi SE 10.4 mph - N/A Fog Fog
11:54 PM 37.9 °F 30.5 °F 37.9 °F 100% 29.99 in 0.2 mi SE 11.5 mph - N/A Fog Fog